Overview Statistics Trail Chart Weather Telemetry Raw packets
 

This is the latest recevied weather packets stored in our database for station/object G4KVI. If no packets are shown the sender has not sent any weather packets the latest 10 day(s).

<< 60 61 62 63 64 65 66 >>
Time Temp. Humidity Pressure Rain* Wind** Luminosity Snow
1788180604 20.56° C 66% 1017 hPa 0 mm - 399 W/m² -
1788180304 20.56° C 67% 1016.7 hPa 0 mm - 591 W/m² -
1788180004 20.56° C 67% 1016.5 hPa 0 mm - 281 W/m² -
1788179704 21.11° C 66% 1016.3 hPa 0 mm - 369 W/m² -
1788179404 20.56° C 67% 1016.5 hPa 0 mm - 851 W/m² -
1788179104 21.11° C 64% 1016.4 hPa 0 mm - 250 W/m² -
1788178804 20.56° C 67% 1016.4 hPa 0 mm - 288 W/m² -
1788178504 20.56° C 67% 1016.3 hPa 0 mm - 752 W/m² -
1788178204 20.56° C 67% 1016.3 hPa 0 mm - 677 W/m² -
1788177904 20° C 67% 1016.2 hPa 0 mm - 677 W/m² -
1788177604 20° C 67% 1016 hPa 0 mm - 689 W/m² -
1788177304 20.56° C 66% 1016 hPa 0 mm - 354 W/m² -
1788177004 20.56° C 66% 1015.8 hPa 0 mm - 162 W/m² -
1788176704 20° C 68% 1015.8 hPa 0 mm - 599 W/m² -
1788176404 20° C 68% 1015.8 hPa 0 mm - 678 W/m² -
1788176104 20° C 67% 1015.4 hPa 0 mm - 673 W/m² -
1788175804 20° C 68% 1015.5 hPa 0 mm - 198 W/m² -
1788175504 19.44° C 67% 1015.6 hPa 0 mm - 575 W/m² -
1788175204 19.44° C 68% 1015.7 hPa 0 mm - 129 W/m² -
1788174904 19.44° C 67% 1015.4 hPa 0 mm - 721 W/m² -
1788174604 19.44° C 69% 1015.5 hPa 0 mm - 248 W/m² -
1788174304 19.44° C 70% 1015.2 hPa 0 mm - 649 W/m² -
1788174004 18.89° C 71% 1015.2 hPa 0 mm - 694 W/m² -
1788173704 18.89° C 70% 1015.3 hPa 0 mm - 260 W/m² -
1788173404 18.89° C 71% 1015.4 hPa 0 mm - 238 W/m² -

* Rain latest hour (hover to see other rain measurements)
** Current wind speed in m/s (hover to see current wind gust speed)